Showing default

OPS 1593 (TRANSIT 11), 1952

Orbit data source: Space-Track

OPS 1593 (TRANSIT 11), 1952 is a payload satellite owned by USN BuWeps (US) in LEO that was launched on Fri, 28 Jan 1966 UTC via an SCOUT A launch vehicle from the Air Force Western Test Range (AFWTR). Payload-class satellites include a variety of spacecraft equipped with specific instruments for various scientific and technological missions. These include communications satellites like Starlink; space stations such as the ISS; scientific satellites like the Hubble; Earth observation satellites from companies like Planet Labs, Umbra, and HawkEye 360; GPS; miniature CubeSats for education and research; and military/defense satellites.

Loading next visibility...
Identifier
1952, 1966-005A
Orbit
LEO
Country
Flag of USUS
Related business
Manufacturer
NAFI
Mission
Defense Navigation
Bus & Motor
TRANSIT 5, Unknown motor
Mass
~50 kg wet, ~50 kg dry
Launch date (UTC)
1966-01-28 (60 years ago)
Launch vehicle
SCOUT A
Launch site
Air Force Western Test Range (AFWTR)
Object type
Payload
Rocket body
Debris
Shape & HBR
Oct Cyl + 4 Pan + 1 Rod, Unknown HBR
Radar Cross Section
7.565 m², Large (>1 m²)

Expand to show TLE details & history
Last TLE update: 23 hours ago

TLE from 23 hours ago
0 OPS 1593 (TRANSIT 11)
1 01952U 66005A   25242.03484888  .00000317  00000-0  30633-3 0  9991
2 01952  90.1569 347.2865 0218049 167.0957 193.5912 13.68009286966344
Epoch: 2025-08-30T00:50Z
TLE epoch observation values (Epoch: 2025-08-30T00:50:10.943Z)
Latitude
-0.00001°
Longitude
-3.73403°
Altitude
1,166.446 km
Speed
7.192 km/s
True Right ascension
23h 09m 08s
True Declination
0° 00' 00"
Sunlit
Object was in full shadow at epoch
Visualization orbit readout
Latitude
Unknown
Longitude
Unknown
Altitude
Unknown
Speed
Unknown
Apparent Right ascension
Unknown
Apparent Declination
Unknown
Sunlit
N/A
Visualization observer readout
Local Sidereal Time
15:32:44
Azimuth
Unknown
Elevation
Unknown
Doppler factor
Unknown
Orbital elements
Apogee altitude
1,164.709 km
Perigee altitude
842.787 km
Semi-major axis
7,381.885 km
Eccentricity
0.0218
Inclination
90.1569°
RAAN
347.2865°
Arg. of periapsis
167.0957°
True anomaly
193.01921°
Mean anomaly
193.5912°
Eccentric anomaly
193.30371°
Mean motion
3.4221 °/min
Orbital period
105.2 mins
BSTAR
0.00030633
Loading maneuver chart data...
Computing Atmospheric mass density...
Loading historical data...
Loading historical data...
Loading historical data...
Loading historical data...
Loading historical data...
Loading historical data...
Loading historical data...

Documentation

Showing up to 5 results
|